Estació municipal de St. Sadurní d'Osormort (Osona, E.N. Guilleries-Savassona)

Consulta les dades en temps real de l'estació municipal de St. Sadurní d'Osormort





Hora UTC 13:10
Temperatura 35.3 ºC
Humitat 29.3 %
Pressió 1020.7 hPa
Pluja 0.0 mm
Velocitat vent 5.7 km/h
Direcció vent NW

Dades diàries 2026-09-04



Hora UTC (hivern +1h; estiu +2h)
Temperatura (ºC) Humitat (%) Pressió (hPa) Velocitat vent (km/h) Precipitació (mm)
Hora UTC Aire Humitat Pressió Vel. Dir. Vel. Max Dir. Intent. màx 5 min.
00:05 15.7 91.7 1024.1 0.0 NNE 0.0 NE 0.0
00:10 15.6 91.7 1024.1 0.0 NNE 0.0 NE 0.0
00:15 15.6 91.7 1024.1 0.0 NNE 0.0 NE 0.0
00:20 15.6 91.9 1024.1 0.0 NNE 0.0 NE 0.0
00:25 15.5 91.9 1024.0 0.0 NNE 0.0 NE 0.0
00:30 15.4 91.8 1024.0 0.0 NNE 0.0 NE 0.0
00:35 15.3 91.9 1024.0 0.0 NNE 0.0 NE 0.0
00:40 15.3 92.0 1024.0 0.0 NNE 0.0 NE 0.0
00:45 15.2 91.9 1023.9 0.0 NNE 0.0 NE 0.0
00:50 15.1 92.0 1023.9 0.0 NNE 0.0 NE 0.0
00:55 15.1 92.0 1023.9 0.0 NNE 0.0 NE 0.0
01:00 15.0 92.1 1023.9 0.0 NNE 0.0 NE 0.0
01:05 15.0 92.2 1023.8 0.0 NNE 0.0 NE 0.0
01:10 14.9 92.2 1023.8 0.0 NNE 0.0 NE 0.0
01:15 14.8 92.2 1023.7 0.0 NNE 0.0 NE 0.0
01:20 14.8 92.3 1023.7 0.0 NNE 0.0 NE 0.0
01:25 14.7 92.3 1023.6 0.0 NNE 0.0 NE 0.0
01:30 14.6 92.3 1023.6 0.0 NNE 0.0 NE 0.0
01:35 14.5 92.3 1023.6 0.0 NNE 0.0 NE 0.0
01:40 14.5 92.5 1023.6 0.0 NNE 0.0 NE 0.0
01:45 14.5 92.5 1023.5 0.0 NNE 0.0 NE 0.0
01:50 14.4 92.5 1023.5 0.0 NNE 0.0 NE 0.0
01:55 14.4 92.6 1023.5 0.0 NNE 0.0 NE 0.0
02:00 14.4 92.7 1023.5 0.0 NNE 0.0 NE 0.0
02:05 14.3 92.7 1023.4 0.0 NNE 0.0 NE 0.0
02:10 14.3 92.7 1023.4 0.0 NNE 0.0 NE 0.0
02:15 14.2 92.7 1023.3 0.0 NNE 0.0 NE 0.0
02:20 14.2 92.8 1023.3 0.0 NNE 0.0 NE 0.0
02:25 14.1 92.7 1023.3 0.0 NNE 0.0 NE 0.0
02:30 14.1 92.9 1023.3 0.0 NNE 0.0 NE 0.0
02:35 14.0 92.9 1023.3 0.0 NNE 0.0 NE 0.0
02:40 14.0 93.0 1023.3 0.0 NNE 0.0 NE 0.0
02:45 14.0 93.0 1023.3 0.0 NNE 0.0 NE 0.0
02:50 14.0 93.2 1023.3 0.0 NNE 0.0 NE 0.0
02:55 14.0 93.1 1023.3 0.0 NNE 0.0 NE 0.0
03:00 13.9 93.0 1023.3 0.0 NNE 0.0 NE 0.0
03:05 13.8 93.1 1023.3 0.0 NNE 0.0 NE 0.0
03:10 13.8 93.2 1023.3 0.0 NNE 0.0 NE 0.0
03:15 13.7 93.1 1023.3 0.0 NNE 0.0 NE 0.0
03:20 13.7 93.1 1023.3 0.0 NNE 0.0 NE 0.0
03:25 13.6 93.1 1023.2 0.0 NNE 0.0 NE 0.0
03:30 13.5 93.2 1023.2 0.0 NNE 0.0 NE 0.0
03:35 13.5 93.3 1023.2 0.0 NNE 0.0 NE 0.0
03:40 13.5 93.3 1023.2 0.0 NNE 0.0 NE 0.0
03:45 13.5 93.2 1023.1 0.0 NNE 0.0 NE 0.0
03:50 13.5 93.4 1023.1 0.0 NNE 0.0 NE 0.0
03:55 13.4 93.3 1023.0 0.0 NNE 0.0 NE 0.0
04:00 13.3 93.2 1023.0 0.0 NNE 0.0 NE 0.0
04:05 13.3 93.3 1022.9 0.0 NNE 0.0 NE 0.0
04:10 13.3 93.3 1022.9 0.0 NNE 0.0 NE 0.0
04:15 13.2 93.3 1022.8 0.0 NNE 0.0 NE 0.0
04:20 13.1 93.4 1022.8 0.0 NNE 0.0 NE 0.0
04:25 13.1 93.4 1022.8 0.0 NNE 0.0 NE 0.0
04:30 13.0 93.3 1022.8 0.0 NNE 0.0 NE 0.0
04:35 13.0 93.4 1022.8 0.0 NNE 0.0 NE 0.0
04:40 13.0 93.4 1022.8 0.0 NNE 0.0 NE 0.0
04:45 12.9 93.4 1022.8 0.0 NNE 0.0 NE 0.0
04:50 12.9 93.5 1022.8 0.0 NNE 0.0 NE 0.0
04:55 12.8 93.5 1022.8 0.0 NNE 0.0 NE 0.0
05:00 12.8 93.5 1022.8 0.0 NNE 0.0 NE 0.0
05:05 12.7 93.5 1022.7 0.0 NNE 0.0 NE 0.0
05:10 12.7 93.5 1022.7 0.0 NNE 0.0 NE 0.0
05:15 12.6 93.5 1022.7 0.0 NNE 0.0 NE 0.0
05:20 12.7 93.9 1022.7 0.0 NNE 0.0 NE 0.0
05:25 12.7 93.6 1022.6 0.0 NNE 0.0 NE 0.0
05:30 12.6 93.6 1022.6 0.0 NNE 0.0 NE 0.0
05:35 12.5 93.6 1022.6 0.0 NNE 0.0 NE 0.0
05:40 12.4 93.6 1022.6 0.0 NNE 0.0 NE 0.0
05:45 12.5 93.8 1022.5 0.0 NNE 0.0 NE 0.0
05:50 12.5 93.9 1022.5 0.0 NNE 0.0 NE 0.0
05:55 12.5 93.8 1022.5 0.0 NNE 0.0 NE 0.0
06:00 12.5 93.8 1022.5 0.0 NNE 0.0 NE 0.0
06:05 12.5 93.9 1022.6 0.0 NNE 0.0 NE 0.0
06:10 12.5 93.9 1022.6 0.0 NNE 0.0 NE 0.0
06:15 12.5 94.0 1022.7 0.0 NNE 0.0 NE 0.0
06:20 12.7 94.2 1022.7 0.0 NNE 0.0 NE 0.0
06:25 12.8 94.3 1022.7 0.0 NNE 0.0 NE 0.0
06:30 12.9 94.3 1022.7 0.0 NNE 0.0 NE 0.0
06:35 13.1 94.5 1022.7 0.0 NNE 0.0 NE 0.0
06:40 13.3 94.6 1022.7 0.0 NNE 0.0 NE 0.0
06:45 13.6 94.9 1022.7 0.0 NNE 0.0 NE 0.0
06:50 14.0 95.1 1022.7 0.0 NNE 0.0 NE 0.0
06:55 14.2 95.1 1022.6 0.0 NNE 0.0 NE 0.0
07:00 14.7 95.5 1022.6 0.0 NNE 0.0 NE 0.0
07:05 15.2 95.6 1022.6 0.0 NNE 0.0 NE 0.0
07:10 15.7 95.6 1022.6 0.0 NNE 0.0 NE 0.0
07:15 16.2 95.8 1022.5 0.0 NNE 0.0 NE 0.0
07:20 16.6 95.7 1022.5 0.0 NNE 0.0 NE 0.0
07:25 17.0 95.3 1022.5 0.0 NNE 0.0 NE 0.0
07:30 17.4 95.0 1022.5 0.0 NNE 0.0 NE 0.0
07:35 17.7 94.6 1022.4 0.0 NNE 0.0 NE 0.0
07:40 18.1 94.3 1022.4 0.0 NNE 0.0 NE 0.0
07:45 18.5 93.8 1022.4 0.0 NNE 0.0 NE 0.0
07:50 19.0 93.1 1022.4 0.0 NNE 0.0 NE 0.0
07:55 19.5 92.0 1022.4 0.0 NNE 0.0 NE 0.0
08:00 19.7 90.2 1022.4 0.0 NNE 0.0 NE 0.0
08:05 20.1 87.8 1022.3 0.0 NNE 0.0 NE 0.0
08:10 20.8 84.5 1022.3 0.5 WSW 6.1 W 0.0
08:15 21.3 82.4 1022.2 1.0 W 6.1 W 0.0
08:20 21.9 81.5 1022.2 0.0 NNE 0.0 W 0.0
08:25 22.6 78.5 1022.2 0.3 W 3.4 W 0.0
08:30 23.1 76.4 1022.2 0.6 WSW 3.4 W 0.0
08:35 23.3 75.9 1022.2 0.1 WSW 3.4 WSW 0.0
08:40 23.6 75.3 1022.2 0.8 W 6.1 W 0.0
08:45 24.2 72.6 1022.3 0.7 W 3.4 W 0.0
08:50 24.7 71.3 1022.3 0.1 W 3.4 W 0.0
08:55 25.1 69.8 1022.3 0.7 W 6.1 WSW 0.0
09:00 25.6 68.7 1022.3 2.2 WNW 6.1 WNW 0.0
09:05 25.9 67.6 1022.2 2.3 WNW 6.1 WNW 0.0
09:10 26.1 66.4 1022.2 2.9 W 8.8 W 0.0
09:15 26.5 64.9 1022.2 1.3 WNW 6.1 WNW 0.0
09:20 26.9 64.2 1022.2 0.0 NNE 0.0 WNW 0.0
09:25 27.2 62.9 1022.2 0.7 W 6.1 WSW 0.0
09:30 27.7 61.3 1022.2 0.1 W 3.4 W 0.0
09:35 27.9 61.2 1022.2 0.0 NNE 0.0 W 0.0
09:40 28.4 58.4 1022.2 1.4 W 6.1 W 0.0
09:45 28.9 56.1 1022.1 0.0 NNE 0.0 WNW 0.0
09:50 28.9 56.3 1022.1 0.0 NNE 0.0 W 0.0
09:55 29.3 53.8 1022.0 0.2 ENE 3.4 E 0.0
10:00 29.8 54.0 1022.0 0.2 S 3.4 ESE 0.0
10:05 30.0 50.4 1021.9 0.8 E 6.1 E 0.0
10:10 30.3 50.9 1021.9 1.6 WSW 8.8 WSW 0.0
10:15 30.3 50.0 1021.8 3.0 W 8.8 WNW 0.0
10:20 30.8 50.3 1021.8 2.3 W 6.1 NNE 0.0
10:25 31.2 46.8 1021.8 2.8 WNW 8.8 W 0.0
10:30 31.5 46.4 1021.8 0.5 W 6.1 WSW 0.0
10:35 31.8 44.9 1021.7 3.0 NW 8.8 NNW 0.0
10:40 32.2 45.7 1021.7 2.6 W 11.5 WNW 0.0
10:45 32.2 39.7 1021.7 3.9 NW 8.8 W 0.0
10:50 33.0 35.9 1021.7 4.0 WNW 11.5 W 0.0
10:55 33.7 33.8 1021.6 7.6 NW 16.9 NW 0.0
11:00 34.1 33.7 1021.6 3.4 WNW 8.8 NNE 0.0
11:05 33.7 34.8 1021.4 2.9 W 14.2 W 0.0
11:10 33.5 38.2 1021.4 0.7 SSE 6.1 WSW 0.0
11:15 33.7 35.9 1021.3 4.1 WNW 14.2 WNW 0.0
11:20 33.7 35.9 1021.3 2.5 W 8.8 WNW 0.0
11:25 33.8 32.8 1021.3 6.0 WNW 16.9 W 0.0
11:30 33.8 34.7 1021.3 4.2 W 11.5 WNW 0.0
11:35 33.9 35.8 1021.2 2.1 SSE 11.5 W 0.0
11:40 34.1 34.7 1021.2 4.5 NW 14.2 NW 0.0
11:45 34.6 34.2 1021.2 3.8 WSW 14.2 WSW 0.0
11:50 33.9 35.5 1021.2 4.4 W 14.2 WNW 0.0
11:55 34.0 36.0 1021.2 2.5 WSW 11.5 W 0.0
12:00 34.1 34.4 1021.2 5.2 WSW 16.9 WNW 0.0
12:05 34.2 36.3 1021.1 2.1 SSW 11.5 WNW 0.0
12:10 34.3 32.8 1021.1 4.3 WNW 11.5 WNW 0.0
12:15 34.6 35.3 1021.0 1.1 W 8.8 W 0.0
12:20 34.8 33.8 1021.0 3.1 SSW 16.9 WSW 0.0
12:25 34.6 32.1 1021.0 4.2 WSW 14.2 WNW 0.0
12:30 34.8 30.5 1021.0 5.1 W 14.2 W 0.0
12:35 34.9 29.8 1020.9 6.3 NW 16.9 NW 0.0
12:40 35.1 31.9 1020.9 3.6 SE 11.5 SSE 0.0
12:45 34.8 34.2 1020.8 1.9 SSE 8.8 SSE 0.0
12:50 34.8 32.2 1020.8 2.0 SSW 11.5 WNW 0.0
12:55 35.0 32.1 1020.7 3.2 W 11.5 WSW 0.0
13:00 35.1 32.0 1020.7 2.3 SSW 11.5 N 0.0
13:05 35.3 29.3 1020.7 3.4 NNW 14.2 WNW 0.0
13:10 35.3 29.3 1020.7 5.7 NW 22.3 W 0.0
Màxima 35.3 95.8 1024.1 7.6 NW 22.3 W 0.0
Mínima 12.4 29.3 1020.7
Total 0.0